Location: Ca�n Batista
(41.4099°N, 1.7752°E)
Time: 22:59:57
(UTC+00:00)

IRIS - Pass Details

Date: 03 March 2021
Orbit: 281 x 2674 km, 41.1° (Epoch: 19 April)

Event Time Altitude Azimuth Distance (km) Brightness Sun altitude
Rises 18:36:57 0° 279° (W) 2,721 10.5 -10.3°
Reaches altitude 10° 18:39:37 10° 275° (W) 1,548 8.7 -10.8°
Maximum altitude 18:42:49 56° 196° (SSW) 411 4.3 -11.4°
Enters shadow 18:44:22 19° 122° (ESE) 807 5.2 -11.7°
